www.pogodaiklimat.ru

Погода и климат >> Архив погоды >> Мьянма >> Тандве


ПОГОДА в Тандве

  • Прогноз погоды в Тандве
  • Монитор погоды в Тандве

АРХИВ ПОГОДЫ в Тандве

Время (UTC), дата Ветер
(напр.,м/с)
 
Видим.   Явления Облачность Т
(С)
Тd
(С)
f
(%)
Тe
(С)
Тes
(С)
Комфортность P
(гПа)
Po
(гПа)
Тmin
(С)
Tmax
(С)
R
(мм)
R24
(мм)
S
(см)
18 14.05 штиль 0 5000 м {морось} 10/6 300 м
[Cb cap Ac As]
+29.0 +25.9 83 +43 +43 опасность
перегрева
1007.3 1006.0
00 15.05 штиль 0 6000 м 9/5 300 м
[Cu Sc Ac As]
+27.0 +25.6 92 +40 +40 очень
душно
1007.6 1006.3 +24.0
03 15.05 СЗ 3 10 км 10/6 300 м
[Cb cap Ac As]
+32.0 +26.5 73 +49 +50 опасность
перегрева
1009.6 1008.4
06 15.05 ЮЗ 5 11 км 8/5 300 м
[Cb cap Ac As]
+36.0 +26.4 58 +53 +56 опасность
перегрева
1009.2 1008.0
09 15.05 ЮЗ 5 12 км 6/4 600 м
[Cb cap Ac As]
+36.0 +24.9 53 +49 +52 опасность
перегрева
1006.6 1005.4
12 15.05 ЮЗ 3 7000 м 6/4 300 м
[Cb cap Ac As]
+31.5 +24.8 68 +45 +45 опасность
перегрева
1007.0 1005.8 +37.5
15 15.05 штиль 0 5000 м 8/5 300 м
[Cb cap Ac As]
+30.0 +25.3 76 +44 +44 опасность
перегрева
1008.3 1007.1
00 16.05 штиль 0 6000 м слаб. морось 8/5 300 м
[Cb cap Ac As]
+28.0 +25.0 84 +40 +41 очень
душно
1008.4 1007.1 +24.0
03 16.05 штиль 0 10 км 6/4 300 м
[Cb cap Ac As]
+33.0 +24.4 61 +46 +54 опасность
перегрева
1010.0 1008.8
06 16.05 З 5 12 км 5/4 600 м
[Cb cap Ac As]
+36.0 +24.9 53 +49 +55 опасность
перегрева
1009.0 1007.8
09 16.05 ЮЗ 4 11 км 8/5 600 м
[Cb cap Ac As]
+36.0 +24.9 53 +49 +51 опасность
перегрева
1006.8 1005.6
12 16.05 З 1 6000 м 6/4 300 м
[Cb cap Ac As]
+31.5 +24.8 68 +45 +45 опасность
перегрева
1007.0 1005.8 +37.4
15 16.05 штиль 0 5000 м 8/5 300 м
[Cb cap Ac As]
+30.0 +25.3 76 +44 +44 опасность
перегрева
1007.8 1006.6
00 17.05 штиль 0 5000 м 6/4 300 м
[Cb cap Ac trans]
+26.0 +24.6 92 +37 +37 очень
душно
1009.2 1007.9 +23.0
03 17.05 ЮЗ 3 9000 м {морось} 8/5 300 м
[Cb cap Ac As]
+32.0 +24.8 66 +45 +49 опасность
перегрева
1009.3 1008.1
06 17.05 ЮЗ 4 12 км 5/4 600 м
[Cb cap Ac As]
+36.5 +25.8 54 +51 +59 опасность
перегрева
1008.4 1007.2
09 17.05 ЮЗ 3 11 км 5/4 600 м
[Cb cap Ac As]
+37.0 +24.6 49 +49 +54 опасность
перегрева
1007.0 1005.8
12 17.05 З 2 7000 м 3/3 600 м
[Cu med, cong]
+32.0 +24.8 66 +45 +45 опасность
перегрева
1006.3 1005.1 +37.3
15 17.05 штиль 0 5000 м 6/4 300 м
[Cb cap Ac As]
+30.0 +25.3 76 +44 +44 опасность
перегрева
1007.1 1005.9
00 18.05 штиль 0 6000 м {морось} 9/6 300 м
[Cu Sc Ac As]
+29.0 +25.9 83 +43 +43 опасность
перегрева
1007.0 1005.7 +24.5
03 18.05 З 1 10 км {морось} 10/6 300 м
[Cb cap Ac As]
+32.0 +24.8 66 +45 +47 опасность
перегрева
1008.7 1007.5
06 18.05 ЮЗ 4 11 км 8/5 600 м
[Cu Sc Ac As]
+36.0 +24.9 53 +49 +54 опасность
перегрева
1008.0 1006.8
09 18.05 ЮЗ 5 12 км 5/3 600 м
[Cu Sc Ac As]
+36.0 +26.4 58 +53 +56 опасность
перегрева
1005.4 1004.2
12 18.05 ЮЗ 3 7000 м 8/5 600 м
[Cu Sc Ac As]
+33.0 +24.4 61 +46 +46 опасность
перегрева
1005.8 1004.6 +37.0
15 18.05 штиль 0 5000 м 10/6 300 м
[Cu Sc Ac As]
+30.0 +25.3 76 +44 +44 опасность
перегрева
1006.8 1005.6
00 19.05 штиль 0 6000 м {морось} 8/5 300 м
[Cb cap Ac As]
+28.0 +25.0 84 +40 +41 очень
душно
1007.5 1006.2 +24.0
03 19.05 штиль 0 10 км 8/5 600 м
[Cb cap Ac As]
+34.0 +25.7 62 +49 +54 опасность
перегрева
1009.0 1007.8
06 19.05 СЗ 5 12 км 5/4 600 м
[Cb cap Ac As]
+37.0 +24.6 49 +49 +56 опасность
перегрева
1008.0 1006.8
09 19.05 СЗ 5 12 км 5/4 600 м
[Cb cap Ac As]
+37.0 +25.8 53 +52 +55 опасность
перегрева
1006.2 1005.0
12 19.05 СВ 1 7000 м {гроза, морось} 8/5 300 м
[Cb cap Ac As]
+28.0 +22.0 70 +36 +36 очень
душно
1007.1 1005.8 +38.0
15 19.05 штиль 0 5000 м 8/6 300 м
[Cu Sc Ac As]
+27.0 +24.0 84 +37 +37 очень
душно
1009.1 1007.8
00 20.05 штиль 0 6000 м 10/6 300 м
[Cu Sc Ac As]
+27.0 +24.0 84 +37 +38 очень
душно
1008.3 1007.0 +23.0
03 20.05 СЗ 1 12 км 6/4 600 м
[Cu Sc Ac As]
+34.0 +25.7 62 +49 +56 опасность
перегрева
1009.0 1007.8
06 20.05 З 4 12 км 6/4 600 м
[Cu Sc Ac As]
+37.5 +27.5 57 +56 +63 опасность
перегрева
1007.8 1006.6
09 20.05 ЮЗ 6 12 км 6/4 600 м
[Cu Sc Ac As]
+37.0 +27.4 58 +56 +58 опасность
перегрева
1007.1 1005.9
12 20.05 В 1 6000 м 10/4 300 м
[Cu Sc Ac As]
+31.5 +21.5 55 +39 +39 очень
душно
1006.0 1004.8 +37.6
15 20.05 штиль 0 5000 м 8/5 300 м
[Cu Sc Ac As]
+30.0 +25.3 76 +44 +44 опасность
перегрева
1007.8 1006.6
00 21.05 штиль 0 6000 м 10/6 300 м
[Cu Sc Ac As]
+27.0 +25.6 92 +40 +40 очень
душно
1007.7 1006.4 +24.0
03 21.05 СЗ 1 10 км 8/5 300 м
[Cu Sc Ac As]
+33.0 +25.8 66 +48 +53 опасность
перегрева
1008.5 1007.3
06 21.05 ЮЗ 5 12 км 6/4 600 м
[Cu med, cong Ac As]
+36.5 +25.8 54 +51 +57 опасность
перегрева
1008.4 1007.2
09 21.05 ЮЗ 5 12 км 6/4 600 м
[Cu Sc Ac As]
+37.0 +25.8 53 +52 +55 опасность
перегрева
1006.2 1005.0
12 21.05 ЮЗ 1 7000 м 8/5 300 м
[Cu Sc Ac As]
+32.0 +26.5 73 +49 +49 опасность
перегрева
1006.8 1005.6 +38.0
15 21.05 штиль 0 5000 м 10/6 300 м
[Cu Sc Ac As]
+30.5 +26.7 80 +47 +47 опасность
перегрева
1007.6 1006.4

 

Местоположение метеостанции Тандве (Мьянма): широта 18.47 долгота 94.35 высота над уровнем моря 11 м.

В архиве по умолчанию представлена погода в Тандве за последнюю неделю. Архивные данные за месяц целиком и за предыдущие месяцы, начиная с января 2011 года, Вы можете получить, выбрав интересующий диапазон дат из раскрывающегося списка и нажав кнопку "Ввод!".


*Определитесь, кто Вы:
робот инопланетянин человек

Внимание! Время в таблицах - всемирное. Для получения местного времени необходимо прибавить поправку, которая равна 6.5 ч.

Смотрите также архив погоды в соседних городах и на ближайших метеорологических станциях:

Погода в Манаунге (Мьянма) (78 км)
Погода в Проме (Мьянма) (99 км)
Погода в Гва (Мьянма) (102 км)
Погода в Кяокпю (Мьянма) (135 км)
Погода в Хинтаде (Мьянма) (144 км)
Погода в Бассейне (Мьянма) (194 км)
Погода в Минбу (Мьянма) (197 км)
Погода в Магуэе (Мьянма) (197 км)
Погода в Таунгу (Мьянма) (229 км)
Погода в Хмавби (Мьянма) (234 км)

Пояснения к столбцам:

Ветер - указаны скорость ветра в м/с - средняя за 10 мин, порывы в срок и между сроками (в фигурных скобках) и направление, откуда дует ветер: С - северный, СВ - северо-восточный, В - восточный, ЮВ - юго-восточный, Ю - южный, ЮЗ - юго-западный, З - западный, СЗ - северо-западный.
Видимость - горизонтальная дальность видимости в метрах или километрах. При видимости от 1 до 10 км при отсутствии осадков обычно наблюдается дымка, при ухудшении видимости до 1 км и менее - туман. В сухую погоду видимость может ухудшаться дымом, пылью или мглою.
Явления - указаны атмосферные явления, наблюдавшиеся в срок или в последний час перед сроком; фигурными скобками обозначены явления, наблюдавшиеся между сроками (за 1-3 часа до срока); квадратными скобками обозначены град или гололедные отложения с указанием их диаметра в мм.
Облачность - указаны через наклонную черту общая и нижняя облачность в баллах и высота нижней границы облаков в метрах; квадратными скобками обозначены формы облаков: Ci - перистые, Cs - перисто-слоистые, Cc - перисто-кучевые, Ac - высококучевые, As - высокослоистые, Sc - слоисто-кучевые, Ns - слоисто-дождевые, Cu - кучевые, Cb - кучево-дождевые. Подробнее классификацию облаков см. в Атласе облаков (PDF).
T - Температура воздуха - температура, измеренная на высоте 2 м над землей.
Td - Температура точки росы - температура, при понижении до которой содержащийся в воздухе водяной пар достигнет насыщения.
f - Относительная влажность воздуха - влажноcть воздуха, измеренная на высоте 2 м над землей.
Te - Эффективная температура - температура, которую ощущает одетый по сезону человек в тени. Характеристика душности погоды. При расчете учитывается влияние влажности воздуха и скорости ветра на теплоощущения человека.
Tes - Эффективная температура на солнце - температура, которую ощущает человек, с поправкой на солнечный нагрев. Характеристика знойности погоды. Зависит от высоты солнца над горизонтом, облачности и скорости ветра. Ночью, в пасмурную погоду, а также при ветре 12 м/с и более поправка равна нулю.
P - Атмосферное давление - приведенное к уровню моря атмосферное давление.
Po - Атмосферное давление - измеренное на уровне метеостанции атмосферное давление.
Tmin - Минимальная температура - минимум температуры воздуха на высоте 2 м над землей.
Tmax - Максимальная температура - максимум температуры воздуха на высоте 2 м над землей.
R - Количество осадков - Количество выпавших осадков за период времени, мм. При наведении курсора мыши на число - период времени, за который выпало указанное количество осадков.
R24 - Количество осадков - Количество выпавших осадков за 24 часа, мм.
S - Снежный покров - Высота снежного покрова, см. При наведении курсора мыши на число - состояние снежного покрова и степень покрытия местности в баллах.